Location: Twillingate Astronomical Observatory
(49.6173°N, 54.7580°W)
Time: 16:49:49
(UTC-03:-30)

Amateur Radio Satellites - All Passes

Search period start: 03 March 2015 16:19
Search period end: 04 March 2015 16:19
Location: Twillingate Astronomical Observatory, 49.6173°N, 54.7580°W

Satellite Date Start Highest point End Downlink Frequencies (MHz)
Time Altitude Azimuth
BEESAT 2 03 Mar 16:24:02 16:26:12 14° 112° (ESE) 16:28:30 435.950
Cubesat XI-IV 03 Mar 16:30:03 16:34:48 34° 63° (ENE) 16:39:38 437.490
CUTE-I 03 Mar 16:38:35 16:43:29 38° 65° (ENE) 16:48:28 437.470
JAS-2 03 Mar 16:46:46 16:51:50 32° 269° (W) 16:57:22 435.910
MOZHAYETS 4 03 Mar 16:52:28 16:57:04 57° 100° (E) 17:01:39
STARS 03 Mar 17:18:47 17:20:14 11° 305° (NW) 17:21:29 437.465
CUBESAT XI-V 03 Mar 17:19:16 17:20:21 11° 83° (E) 17:21:42 437.345
AIST 1 03 Mar 17:31:32 17:35:44 40° 73° (ENE) 17:39:54
BEESAT 3 03 Mar 17:33:12 17:37:17 67° 126° (SE) 17:41:26 437.485
O/OREOS (USA 219) 03 Mar 17:34:35 17:38:32 27° 49° (NE) 17:42:29 437.305
M-CUBED/EXP-1 PRIME 03 Mar 17:40:31 17:44:33 49° 295° (WNW) 17:48:52 437.505
PRISM 03 Mar 17:40:32 17:43:00 15° 89° (E) 17:45:36 437.425
AUBIESAT-1 03 Mar 17:41:42 17:45:46 53° 294° (WNW) 17:50:08 437.475
STRAND 1 03 Mar 17:45:07 17:47:14 13° 84° (E) 17:49:36 437.568
YUBILEINY 03 Mar 17:45:49 17:53:58 40° 295° (WNW) 18:02:07 435.215
AO-7 03 Mar 17:57:53 17:59:38 10° 283° (WNW) 18:00:41 29.400- 29.500
BEESAT 2 03 Mar 17:59:41 18:03:51 83° 310° (NW) 18:08:04 435.950
AIST 2 03 Mar 18:02:09 18:06:15 47° 123° (ESE) 18:10:25 435.215
Cubesat XI-IV 03 Mar 18:09:42 18:14:49 43° 262° (W) 18:19:58 437.490
HO-68 03 Mar 18:16:46 18:22:27 27° 53° (NE) 18:28:18 435.675
CUTE-I 03 Mar 18:18:37 18:23:36 38° 264° (W) 18:28:36 437.470
CUTE 1.7 + AOD 2 03 Mar 18:25:18 18:26:25 11° 57° (ENE) 18:27:43 437.475
VERMONT LUNAR 03 Mar 18:26:30 18:28:44 16° 169° (S) 18:30:59 437.305
BRITE-PL 03 Mar 18:28:41 18:33:04 25° 63° (ENE) 18:37:22 437.365/2234.400
GOMX 1 03 Mar 18:29:55 18:33:18 18° 60° (ENE) 18:36:42 467.674
MOZHAYETS 4 03 Mar 18:30:27 18:33:58 21° 298° (WNW) 18:37:24
PHONESAT 2.4 03 Mar 18:37:17 18:39:17 14° 164° (SSE) 18:41:19 2401.200-2431.200
CUBESAT XI-V 03 Mar 18:53:57 18:58:43 79° 103° (ESE) 19:03:25 437.345
DOVE 4 03 Mar 18:59:51 19:03:35 22° 63° (ENE) 19:07:16 437.250
CINEMA 3 03 Mar 19:02:45 19:04:46 13° 58° (ENE) 19:06:56 145.822/145.860
AAUSAT CUBESAT 2 03 Mar 19:04:01 19:06:31 16° 61° (ENE) 19:09:09 437.432
COMPASS 1 03 Mar 19:06:55 19:09:49 19° 62° (ENE) 19:12:49 437.405
AIST 1 03 Mar 19:09:39 19:13:13 24° 272° (W) 19:16:40
BEESAT 3 03 Mar 19:12:20 19:15:46 24° 327° (NNW) 19:19:12 437.485
O/OREOS (USA 219) 03 Mar 19:13:45 19:18:12 47° 249° (WSW) 19:22:35 437.305
PRISM 03 Mar 19:14:46 19:18:59 64° 288° (WNW) 19:23:10 437.425
CUBEBUG 2 03 Mar 19:18:48 19:19:06 10° 56° (NE) 19:19:37 437.445
STRAND 1 03 Mar 19:22:11 19:27:23 82° 104° (ESE) 19:32:33 437.568
DX 1 03 Mar 19:31:46 19:32:10 10° 54° (NE) 19:32:46 434.975-435.025
SEEDS 03 Mar 19:34:34 19:38:27 39° 69° (ENE) 19:42:23 437.485
CANX-2 03 Mar 19:39:07 19:43:14 55° 72° (ENE) 19:47:23 2200.000
BEESAT 2 03 Mar 19:39:34 19:42:40 20° 331° (NNW) 19:45:45 435.950
AIST 2 03 Mar 19:41:09 19:45:02 31° 323° (NW) 19:48:55 435.215
FUNcube-1 03 Mar 19:50:37 19:52:44 14° 59° (ENE) 19:54:58 145.935
YUBILEINY 03 Mar 19:51:50 19:54:13 11° 324° (NW) 19:56:10 435.215
ZACube-1 03 Mar 19:52:04 19:54:19 14° 60° (ENE) 19:56:43 437.345
CUTE 1.7 + AOD 2 03 Mar 19:57:28 20:01:41 78° 74° (ENE) 20:05:55 437.475
UKube-1 03 Mar 19:57:32 20:00:11 16° 59° (ENE) 20:02:58 .
HO-68 03 Mar 20:02:24 20:09:34 81° 254° (WSW) 20:16:48 435.675
VERMONT LUNAR 03 Mar 20:03:30 20:05:56 18° 186° (S) 20:08:21 437.305
GONETS M04 03 Mar 20:04:49 20:10:05 19° 75° (ENE) 20:15:44
DELFI C3 03 Mar 20:04:57 20:08:15 25° 65° (ENE) 20:11:35 145.870
GOMX 1 03 Mar 20:05:35 20:10:57 83° 258° (WSW) 20:16:01 467.674
BRITE-PL 03 Mar 20:05:42 20:11:16 63° 259° (W) 20:16:34 437.365/2234.400
UWE-3 03 Mar 20:12:00 20:15:34 25° 65° (ENE) 20:19:07 435.000/436.395/437.385
PCSat 03 Mar 20:13:34 20:18:28 37° 114° (ESE) 20:23:27 145.827
PHONESAT 2.4 03 Mar 20:14:18 20:17:00 20° 181° (S) 20:19:42 2401.200-2431.200
CUBESAT XI-V 03 Mar 20:32:35 20:35:37 17° 301° (WNW) 20:38:31 437.345
DOVE 4 03 Mar 20:35:59 20:41:03 62° 260° (W) 20:45:50 437.250
CINEMA 3 03 Mar 20:36:40 20:41:25 82° 75° (ENE) 20:45:57 145.822/145.860
Oscar 11 03 Mar 20:37:20 20:41:37 65° 72° (ENE) 20:45:54 145.826/435.025
AAUSAT CUBESAT 2 03 Mar 20:37:38 20:41:45 65° 259° (WSW) 20:45:54 437.432
COMPASS 1 03 Mar 20:41:08 20:45:13 53° 260° (W) 20:49:19 437.405
CUBEBUG 2 03 Mar 20:50:41 20:55:07 67° 73° (ENE) 20:59:27 437.445
BEESAT 3 03 Mar 20:54:11 20:55:17 11° 350° (N) 20:56:22 437.485
STRAND 1 03 Mar 21:02:28 21:06:02 19° 303° (WNW) 21:09:26 437.568
DX 1 03 Mar 21:03:17 21:07:38 64° 72° (ENE) 21:12:01 434.975-435.025
50 SAT 03 Mar 21:07:41 21:11:02 27° 66° (ENE) 21:14:27 437.505
SEEDS 03 Mar 21:11:01 21:14:27 24° 268° (W) 21:17:50 437.485
AISAT 03 Mar 21:11:42 21:15:48 36° 67° (ENE) 21:19:56 437.250
CUBEBUG 1 03 Mar 21:12:50 21:15:51 18° 60° (ENE) 21:18:58 437.445
CANX-2 03 Mar 21:16:42 21:19:35 17° 271° (W) 21:22:21 2200.000
VELOX 1 03 Mar 21:20:34 21:24:47 41° 68° (ENE) 21:29:02 145.980
HUMSAT D 03 Mar 21:20:58 21:25:01 51° 71° (ENE) 21:29:03 437.325/437.525
BEESAT 2 03 Mar 21:21:50 21:22:25 10° 355° (N) 21:22:59 435.950
AIST 2 03 Mar 21:23:00 21:24:56 13° 346° (NNW) 21:26:51 435.215
FUNcube-1 03 Mar 21:24:13 21:28:34 84° 256° (WSW) 21:32:51 145.935
ZACube-1 03 Mar 21:25:52 21:30:14 80° 257° (WSW) 21:34:30 437.345
UKube-1 03 Mar 21:31:32 21:35:53 73° 257° (WSW) 21:40:16 .
CUTE 1.7 + AOD 2 03 Mar 21:36:20 21:38:15 12° 274° (W) 21:39:59 437.475
DELFI C3 03 Mar 21:39:34 21:43:19 36° 263° (W) 21:47:05 145.870
ESTCUBE 1 03 Mar 21:40:19 21:44:22 34° 66° (ENE) 21:48:30 437.505/2401.250
SPROUT 03 Mar 21:43:12 21:44:04 11° 55° (NE) 21:45:07 437.525
GOMX 1 03 Mar 21:47:12 21:49:50 13° 275° (W) 21:52:11 467.674
UNISAT 6 03 Mar 21:47:15 21:49:50 16° 88° (E) 21:52:36 437.425
UWE-3 03 Mar 21:47:47 21:51:59 41° 262° (W) 21:56:03 435.000/436.395/437.385
BRITE-PL 03 Mar 21:50:04 21:50:52 10° 279° (W) 21:51:17 437.365/2234.400
PHONESAT 2.4 03 Mar 21:52:47 21:54:42 14° 197° (SSW) 21:56:35 2401.200-2431.200
HO-68 03 Mar 21:53:49 21:58:34 18° 276° (W) 22:03:02 435.675
QB50P1 03 Mar 21:55:29 21:56:14 11° 84° (E) 21:57:13 145.935-145.965
PCSat 03 Mar 21:56:35 22:01:50 47° 314° (NW) 22:07:06 145.827
GONETS M04 03 Mar 21:56:57 22:05:36 77° 96° (E) 22:14:19
QB50P2 03 Mar 21:59:03 22:00:34 12° 86° (E) 22:02:17 145.880/145.840
TIGRISAT 03 Mar 22:11:07 22:14:42 26° 94° (E) 22:18:20 435.000
DUCHIFAT 1 03 Mar 22:12:22 22:14:53 16° 88° (E) 22:17:33 145.980
Oscar 11 03 Mar 22:15:38 22:18:18 15° 272° (W) 22:20:49 145.826/435.025
CINEMA 3 03 Mar 22:16:47 22:19:14 14° 273° (W) 22:21:27 145.822/145.860
ANTELSAT 03 Mar 22:25:05 22:29:03 36° 97° (E) 22:33:05 437.575/2403.000
CUBEBUG 2 03 Mar 22:29:34 22:32:19 16° 272° (W) 22:34:53 437.445
CUSAT 1 03 Mar 22:30:15 22:32:32 13° 91° (E) 22:34:49 437.405
POPSAT HIP 1 03 Mar 22:33:10 22:36:39 25° 93° (E) 22:40:12 437.405
POLYITAN 1 03 Mar 22:33:12 22:36:44 25° 93° (E) 22:40:17 437.675
BEESAT 3 03 Mar 22:33:37 22:35:09 12° 14° (NNE) 22:36:44 437.485
DX 1 03 Mar 22:41:31 22:44:22 16° 271° (W) 22:47:06 434.975-435.025
50 SAT 03 Mar 22:42:25 22:46:00 31° 264° (W) 22:49:33 437.505
RS-15 03 Mar 22:42:26 22:52:21 44° 112° (ESE) 23:02:34 29.354- 29.394
CUBEBUG 1 03 Mar 22:47:23 22:51:49 64° 259° (WSW) 22:56:17 437.445
AISAT 03 Mar 22:48:29 22:52:29 30° 265° (W) 22:56:27 437.250
NANOSAT C BR1 03 Mar 22:55:35 22:59:36 41° 98° (E) 23:03:37 145.865
VELOX 1 03 Mar 22:57:44 23:01:32 26° 267° (W) 23:05:16 145.980
HUMSAT D 03 Mar 22:58:11 23:01:09 18° 270° (W) 23:03:59 437.325/437.525
BEESAT 2 03 Mar 23:00:12 23:02:20 14° 19° (NNE) 23:04:31 435.950
AIST 2 03 Mar 23:03:52 23:05:21 12° 10° (N) 23:06:52 435.215
TISAT 1 03 Mar 23:15:00 23:19:15 65° 73° (ENE) 23:23:30 437.305
SPROUT 03 Mar 23:15:07 23:19:26 70° 73° (ENE) 23:23:47 437.525
ESTCUBE 1 03 Mar 23:17:11 23:21:17 32° 265° (W) 23:25:22 437.505/2401.250
UNISAT 6 03 Mar 23:22:52 23:27:07 62° 288° (WNW) 23:31:23 437.425
SWISSCUBE 03 Mar 23:25:17 23:28:47 21° 60° (ENE) 23:32:23 437.505
QB50P1 03 Mar 23:28:37 23:32:54 89° 128° (SE) 23:37:07 145.935-145.965
QB50P2 03 Mar 23:32:53 23:37:09 82° 286° (WNW) 23:41:23 145.880/145.840
BUGSAT 1 03 Mar 23:33:01 23:37:14 76° 102° (ESE) 23:41:21 437.445
BEESAT 03 Mar 23:33:31 23:37:10 23° 61° (ENE) 23:40:54 436.000
PCSat 03 Mar 23:43:06 23:46:38 17° 339° (NNW) 23:50:06 145.827
DANDE 03 Mar 23:46:13 23:52:20 51° 99° (E) 23:56:57 436.750
DUCHIFAT 1 03 Mar 23:47:01 23:51:12 61° 288° (WNW) 23:55:21 145.980
TIGRISAT 03 Mar 23:47:38 23:51:35 37° 292° (WNW) 23:55:33 435.000
GONETS M04 03 Mar 23:56:03 00:03:30 30° 301° (WNW) 00:10:50
ITUPSAT 1 04 Mar 00:00:46 00:05:06 36° 66° (ENE) 00:09:32 437.325
ANTELSAT 04 Mar 00:02:06 00:05:47 28° 295° (WNW) 00:09:26 437.575/2403.000
POPSAT HIP 1 04 Mar 00:08:45 00:12:42 37° 292° (WNW) 00:16:35 437.405
POLYITAN 1 04 Mar 00:08:51 00:12:47 37° 292° (WNW) 00:16:40 437.675
CUSAT 1 04 Mar 00:09:24 00:15:16 88° 286° (WNW) 00:19:35 437.405
BEESAT 3 04 Mar 00:10:51 00:14:32 30° 37° (NE) 00:18:12 437.485
NANOSAT C BR1 04 Mar 00:31:51 00:35:18 24° 296° (WNW) 00:38:40 145.865
BEESAT 2 04 Mar 00:37:38 00:41:37 40° 42° (NE) 00:45:33 435.950
AIST 2 04 Mar 00:41:48 00:45:24 25° 33° (NNE) 00:49:00 435.215
TISAT 1 04 Mar 00:52:54 00:55:33 15° 272° (W) 00:58:04 437.305
RS-15 04 Mar 00:53:24 01:04:17 69° 318° (NW) 01:15:29 29.354- 29.394
SPROUT 04 Mar 00:53:34 00:56:05 15° 273° (W) 00:58:27 437.525
SWISSCUBE 04 Mar 01:01:31 01:06:16 63° 258° (WSW) 01:11:04 437.505
KKS-1 04 Mar 01:01:59 01:05:52 30° 65° (ENE) 01:09:48 437.445
Oscar 19 04 Mar 01:04:16 01:08:47 31° 94° (E) 01:13:21 437.125/150
STARS 04 Mar 01:06:00 01:09:26 23° 63° (ENE) 01:12:59 437.465
QB50P1 04 Mar 01:06:11 01:08:12 13° 302° (WNW) 01:10:03 145.935-145.965
ITAMSAT 1 04 Mar 01:07:08 01:09:05 12° 83° (E) 01:11:19 435.822/435.867
BUGSAT 1 04 Mar 01:09:51 01:12:13 15° 301° (WNW) 01:14:26 437.445
BEESAT 04 Mar 01:09:59 01:14:41 57° 259° (W) 01:19:26 436.000
QB50P2 04 Mar 01:10:48 01:12:26 12° 303° (WNW) 01:13:53 145.880/145.840
SO-50 04 Mar 01:16:58 01:21:10 35° 119° (ESE) 01:25:33 436.795
PCSat 04 Mar 01:30:04 01:32:21 12° 5° (N) 01:34:39 145.827
DANDE 04 Mar 01:30:44 01:35:46 26° 291° (WNW) 01:39:42 436.750
ITUPSAT 1 04 Mar 01:38:44 01:43:04 33° 265° (W) 01:47:24 437.325
BEESAT 3 04 Mar 01:48:48 01:52:49 48° 237° (WSW) 01:56:46 437.485
YUBILEINY 04 Mar 01:52:45 02:00:45 37° 64° (ENE) 02:08:50 435.215
CUSAT 1 04 Mar 01:56:04 01:58:27 13° 297° (WNW) 02:00:24 437.405
BEESAT 2 04 Mar 02:15:59 02:19:44 32° 241° (WSW) 02:23:23 435.950
AIST 2 04 Mar 02:20:08 02:24:25 67° 234° (SW) 02:28:36 435.215
Gurwin Techsat 1B 04 Mar 02:24:07 02:29:12 43° 97° (E) 02:34:15 435.225
MOZHAYETS 4 04 Mar 02:24:20 02:26:35 14° 57° (ENE) 02:29:01
KKS-1 04 Mar 02:38:19 02:42:27 35° 264° (W) 02:46:35 437.445
STARS 04 Mar 02:41:24 02:45:41 48° 261° (W) 02:49:59 437.465
Oscar 19 04 Mar 02:43:28 02:48:18 42° 293° (WNW) 02:53:06 437.125/150
ITAMSAT 1 04 Mar 02:44:19 02:49:35 78° 103° (ESE) 02:54:49 435.822/435.867
HORYU 2 04 Mar 02:52:33 02:55:56 21° 91° (E) 02:59:24 437.375
SO-50 04 Mar 02:57:09 03:01:40 44° 319° (NW) 03:06:19 436.795
M-CUBED/EXP-1 PRIME 04 Mar 02:59:38 03:02:53 49° 65° (ENE) 03:06:19 437.505
AUBIESAT-1 04 Mar 03:00:29 03:03:42 44° 64° (ENE) 03:07:07 437.475
RS-15 04 Mar 03:08:49 03:18:57 39° 349° (N) 03:29:24 29.354- 29.394
PCSat 04 Mar 03:13:38 03:17:51 22° 30° (NNE) 03:22:07 145.827
JAS-2 04 Mar 03:48:54 03:55:35 36° 92° (E) 04:02:43 435.910
YUBILEINY 04 Mar 03:49:30 03:58:13 63° 267° (W) 04:06:51 435.215
AO-7 04 Mar 03:52:33 04:00:21 44° 98° (E) 04:08:11 29.400- 29.500
MOZHAYETS 4 04 Mar 03:58:37 04:03:12 87° 70° (ENE) 04:07:50
Gurwin Techsat 1B 04 Mar 04:04:20 04:09:06 33° 296° (WNW) 04:13:47 435.225
ITAMSAT 1 04 Mar 04:24:50 04:28:34 20° 303° (WNW) 04:32:10 435.822/435.867
CUBESAT XI-V 04 Mar 04:25:58 04:29:14 19° 60° (ENE) 04:32:37 437.345
HORYU 2 04 Mar 04:28:35 04:32:53 49° 291° (WNW) 04:37:11 437.375
PRISM 04 Mar 04:35:04 04:38:13 21° 62° (ENE) 04:41:27 437.425
M-CUBED/EXP-1 PRIME 04 Mar 04:36:29 04:38:17 13° 266° (W) 04:39:59 437.505
AUBIESAT-1 04 Mar 04:36:56 04:38:58 15° 265° (W) 04:40:57 437.475
SO-50 04 Mar 04:40:14 04:43:26 17° 343° (NNW) 04:46:37 436.795
PCSat 04 Mar 04:56:42 05:02:10 78° 52° (NE) 05:07:37 145.827
STRAND 1 04 Mar 05:04:18 05:08:42 30° 63° (ENE) 05:13:13 437.568
RS-15 04 Mar 05:24:06 05:34:38 44° 22° (NNE) 05:45:41 29.354- 29.394
JAS-2 04 Mar 05:33:46 05:40:58 61° 291° (WNW) 05:48:37 435.910
MOZHAYETS 4 04 Mar 05:39:09 05:41:12 12° 275° (W) 05:43:03
AO-7 04 Mar 05:45:24 05:53:25 54° 300° (WNW) 06:01:22 29.400- 29.500
YUBILEINY 04 Mar 05:48:50 05:53:22 15° 289° (WNW) 05:57:23 435.215
CUBESAT XI-V 04 Mar 06:01:34 06:06:15 67° 259° (WSW) 06:11:00 437.345
GONETS M04 04 Mar 06:06:35 06:10:23 14° 42° (NE) 06:14:38
AIST 1 04 Mar 06:06:40 06:09:44 20° 87° (E) 06:12:58
PRISM 04 Mar 06:09:25 06:13:27 47° 261° (W) 06:17:32 437.425
Cubesat XI-IV 04 Mar 06:22:09 06:27:27 55° 100° (E) 06:32:43 437.490
SO-50 04 Mar 06:23:09 06:25:49 14° 7° (N) 06:28:33 436.795
CUTE-I 04 Mar 06:30:40 06:36:01 63° 101° (ESE) 06:41:20 437.470
PCSat 04 Mar 06:41:06 06:45:04 20° 252° (WSW) 06:48:53 145.827
STRAND 1 04 Mar 06:42:48 06:47:46 46° 262° (W) 06:52:45 437.568
JAS-2 04 Mar 07:20:19 07:24:52 18° 311° (NW) 07:29:22 435.910
HO-68 04 Mar 07:27:01 07:30:51 15° 83° (E) 07:35:04 435.675
RS-15 04 Mar 07:37:11 07:48:36 89° 54° (NE) 08:00:32 29.354- 29.394
AO-7 04 Mar 07:39:23 07:44:35 18° 322° (NW) 07:49:32 29.400- 29.500
CUTE 1.7 + AOD 2 04 Mar 07:41:32 07:41:49 10° 84° (E) 07:42:21 437.475
AIST 1 04 Mar 07:42:51 07:47:06 49° 285° (WNW) 07:51:24
O/OREOS (USA 219) 04 Mar 07:54:13 07:55:38 12° 98° (E) 07:57:18 437.305
GONETS M04 04 Mar 08:01:41 08:10:07 49° 69° (ENE) 08:18:36
Cubesat XI-IV 04 Mar 08:02:46 08:07:18 28° 299° (WNW) 08:11:43 437.490
SO-50 04 Mar 08:03:45 08:07:57 28° 31° (NNE) 08:12:13 436.795
GOMX 1 04 Mar 08:04:32 08:07:39 19° 89° (E) 08:10:46 467.674
BRITE-PL 04 Mar 08:07:11 08:11:14 30° 93° (E) 08:15:04 437.365/2234.400
CUTE-I 04 Mar 08:11:27 08:15:44 24° 301° (WNW) 08:19:55 437.470
ISS 04 Mar 08:16:22 08:18:22 16° 140° (SE) 08:20:27 145.825
AAUSAT CUBESAT 2 04 Mar 08:17:42 08:20:07 15° 88° (E) 08:22:40 437.432
COMPASS 1 04 Mar 08:21:09 08:24:06 19° 90° (E) 08:27:08 437.405
CINEMA 3 04 Mar 08:29:11 08:30:57 13° 86° (E) 08:32:54 145.822/145.860
DOVE 4 04 Mar 08:31:39 08:35:08 24° 92° (E) 08:38:34 437.250
SEEDS 04 Mar 08:50:11 08:54:13 42° 98° (E) 08:58:16 437.485
UNISAT 6 04 Mar 08:50:25 08:53:58 25° 64° (ENE) 08:57:31 437.425
QB50P1 04 Mar 08:51:45 08:54:21 16° 60° (ENE) 08:57:04 145.935-145.965
BUGSAT 1 04 Mar 08:54:21 08:56:25 14° 58° (ENE) 08:58:37 437.445
QB50P2 04 Mar 08:55:54 08:58:44 18° 61° (ENE) 09:01:41 145.880/145.840
CANX-2 04 Mar 08:55:54 09:00:08 61° 101° (E) 09:04:22 2200.000
DUCHIFAT 1 04 Mar 09:09:00 09:12:18 22° 63° (ENE) 09:15:39 145.980
FUNcube-1 04 Mar 09:09:59 09:11:54 13° 87° (E) 09:13:59 145.935
ZACube-1 04 Mar 09:11:40 09:13:47 14° 87° (E) 09:16:04 437.345
HO-68 04 Mar 09:12:49 09:20:02 73° 105° (ESE) 09:27:14 435.675
TIGRISAT 04 Mar 09:14:06 09:18:10 39° 68° (ENE) 09:22:12 435.000
CUTE 1.7 + AOD 2 04 Mar 09:14:15 09:18:32 86° 103° (ESE) 09:22:48 437.475
DELFI C3 04 Mar 09:15:19 09:18:34 23° 92° (E) 09:21:52 145.870
UKube-1 04 Mar 09:16:20 09:18:35 14° 87° (E) 09:21:00 .
ANTELSAT 04 Mar 09:28:23 09:32:38 55° 72° (ENE) 09:36:52 437.575/2403.000
O/OREOS (USA 219) 04 Mar 09:29:47 09:34:22 85° 116° (ESE) 09:39:01 437.305
POPSAT HIP 1 04 Mar 09:30:08 09:34:01 34° 67° (ENE) 09:37:55 437.405
POLYITAN 1 04 Mar 09:30:27 09:34:20 35° 68° (ENE) 09:38:16 437.675
UWE-3 04 Mar 09:33:29 09:37:02 27° 94° (E) 09:40:37 435.000/436.395/437.385
GOMX 1 04 Mar 09:41:54 09:46:14 50° 290° (WNW) 09:50:19 467.674
SO-50 04 Mar 09:44:04 09:49:01 77° 232° (SW) 09:53:57 436.795
BRITE-PL 04 Mar 09:45:39 09:49:52 34° 294° (WNW) 09:53:46 437.365/2234.400
RS-15 04 Mar 09:50:20 09:59:57 32° 253° (WSW) 10:09:32 29.354- 29.394
ISS 04 Mar 09:51:10 09:54:22 69° 159° (SSE) 09:57:36 145.825
AAUSAT CUBESAT 2 04 Mar 09:52:04 09:56:14 63° 287° (WNW) 10:00:24 437.432
NANOSAT C BR1 04 Mar 09:52:18 09:56:29 55° 72° (ENE) 10:00:42 145.865
COMPASS 1 04 Mar 09:56:03 10:00:08 51° 289° (WNW) 10:04:13 437.405
Oscar 11 04 Mar 09:56:22 10:00:43 73° 102° (ESE) 10:05:02 145.826/435.025
GONETS M04 04 Mar 09:58:48 10:07:01 46° 272° (W) 10:15:09
CINEMA 3 04 Mar 10:04:37 10:08:50 73° 286° (WNW) 10:12:57 145.822/145.860
DOVE 4 04 Mar 10:09:06 10:13:08 38° 292° (WNW) 10:16:59 437.250
CUBEBUG 2 04 Mar 10:14:07 10:18:19 83° 103° (ESE) 10:22:29 437.445
50 SAT 04 Mar 10:16:32 10:19:45 24° 93° (E) 10:23:00 437.505
DX 1 04 Mar 10:23:30 10:27:52 65° 102° (ESE) 10:32:12 434.975-435.025
DANDE 04 Mar 10:24:22 10:26:54 31° 71° (ENE) 10:29:18 436.750
QB50P1 04 Mar 10:25:31 10:29:48 70° 258° (WSW) 10:34:05 145.935-145.965
SEEDS 04 Mar 10:26:26 10:29:52 24° 295° (WNW) 10:33:14 437.485
UNISAT 6 04 Mar 10:26:28 10:30:37 40° 262° (W) 10:34:43 437.425
BUGSAT 1 04 Mar 10:27:03 10:31:20 87° 252° (WSW) 10:35:39 437.445
QB50P2 04 Mar 10:30:01 10:34:16 62° 259° (WSW) 10:38:32 145.880/145.840
CANX-2 04 Mar 10:32:48 10:35:42 18° 299° (WNW) 10:38:29 2200.000
CUBEBUG 1 04 Mar 10:32:59 10:35:58 18° 89° (E) 10:39:03 437.445
AISAT 04 Mar 10:34:33 10:38:43 38° 97° (E) 10:42:52 437.250
HUMSAT D 04 Mar 10:36:31 10:40:34 53° 100° (E) 10:44:37 437.325/437.525
VELOX 1 04 Mar 10:43:11 10:47:29 44° 98° (E) 10:51:45 145.980
DUCHIFAT 1 04 Mar 10:43:46 10:47:55 46° 262° (W) 10:52:03 145.980
CUSAT 1 04 Mar 10:44:06 10:46:46 84° 263° (W) 10:49:24 437.405
FUNcube-1 04 Mar 10:44:40 10:48:49 71° 286° (WNW) 10:52:58 145.935
ZACube-1 04 Mar 10:46:34 10:50:42 67° 287° (WNW) 10:54:50 437.345
Oscar 19 04 Mar 10:49:36 10:51:51 13° 53° (NE) 10:54:16 437.125/150
DELFI C3 04 Mar 10:50:06 10:53:56 39° 291° (WNW) 10:57:45 145.870
UKube-1 04 Mar 10:50:58 10:55:20 73° 287° (WNW) 10:59:39 .
TIGRISAT 04 Mar 10:51:26 10:55:05 25° 267° (W) 10:58:38 435.000
CUTE 1.7 + AOD 2 04 Mar 10:51:45 10:53:55 13° 301° (WNW) 10:55:55 437.475
HO-68 04 Mar 11:01:11 11:07:17 30° 305° (NW) 11:13:15 435.675
ESTCUBE 1 04 Mar 11:05:06 11:09:23 39° 97° (E) 11:13:40 437.505/2401.250
POPSAT HIP 1 04 Mar 11:06:12 11:09:58 28° 266° (W) 11:13:41 437.405
POLYITAN 1 04 Mar 11:06:37 11:10:21 28° 266° (W) 11:14:02 437.675
ANTELSAT 04 Mar 11:06:46 11:09:50 18° 270° (W) 11:12:46 437.575/2403.000
UWE-3 04 Mar 11:09:53 11:13:40 33° 292° (WNW) 11:17:24 435.000/436.395/437.385
O/OREOS (USA 219) 04 Mar 11:11:17 11:14:29 18° 317° (NW) 11:17:37 437.305
SO-50 04 Mar 11:26:23 11:28:54 14° 250° (WSW) 11:31:10 436.795
ISS 04 Mar 11:27:41 11:30:53 58° 357° (N) 11:34:06 145.825
NANOSAT C BR1 04 Mar 11:29:45 11:32:44 18° 270° (W) 11:35:36 145.865
Oscar 11 04 Mar 11:33:44 11:36:25 16° 300° (WNW) 11:38:59 145.826/435.025
CINEMA 3 04 Mar 11:44:53 11:45:20 10° 305° (NW) 11:45:35 145.822/145.860
50 SAT 04 Mar 11:51:13 11:54:52 35° 292° (WNW) 11:58:28 437.505
CUBEBUG 2 04 Mar 11:52:27 11:54:30 13° 302° (WNW) 11:56:24 437.445
DX 1 04 Mar 12:00:43 12:03:43 18° 300° (WNW) 12:06:37 434.975-435.025
BUGSAT 1 04 Mar 12:06:36 12:07:36 11° 275° (W) 12:08:21 437.445
CUBEBUG 1 04 Mar 12:08:24 12:12:46 58° 289° (WNW) 12:17:04 437.445
AISAT 04 Mar 12:11:24 12:15:15 28° 296° (WNW) 12:19:00 437.250
Gurwin Techsat 1B 04 Mar 12:11:58 12:15:32 19° 57° (ENE) 12:19:14 435.225
HUMSAT D 04 Mar 12:13:07 12:16:02 19° 298° (WNW) 12:18:51 437.325/437.525
VELOX 1 04 Mar 12:20:13 12:23:52 25° 297° (WNW) 12:27:26 145.980
Oscar 19 04 Mar 12:25:17 12:30:23 69° 72° (ENE) 12:35:31 437.125/150
ITAMSAT 1 04 Mar 12:28:16 12:32:46 31° 63° (ENE) 12:37:21 435.822/435.867
UKube-1 04 Mar 12:29:23 12:30:46 11° 305° (NW) 12:31:59 .
TISAT 1 04 Mar 12:31:13 12:35:27 65° 102° (ESE) 12:39:37 437.305
SPROUT 04 Mar 12:33:34 12:37:54 76° 104° (ESE) 12:42:11 437.525
ESTCUBE 1 04 Mar 12:42:13 12:46:10 29° 295° (WNW) 12:50:02 437.505/2401.250
SWISSCUBE 04 Mar 12:57:58 13:01:52 25° 92° (E) 13:05:52 437.505
ISS 04 Mar 13:04:13 13:07:28 85° 17° (NNE) 13:10:43 145.825
BEESAT 04 Mar 13:06:10 13:10:13 27° 93° (E) 13:14:20 436.000
AO-7 04 Mar 13:06:10 13:12:32 26° 46° (NE) 13:19:03 29.400- 29.500
ITUPSAT 1 04 Mar 13:34:21 13:39:01 47° 99° (E) 13:43:41 437.325
Gurwin Techsat 1B 04 Mar 13:49:36 13:54:56 83° 254° (WSW) 14:00:19 435.225
HORYU 2 04 Mar 13:55:00 13:58:59 34° 66° (ENE) 14:03:01 437.375
Oscar 19 04 Mar 14:06:38 14:10:19 19° 272° (W) 14:13:52 437.125/150
ITAMSAT 1 04 Mar 14:07:05 14:12:07 46° 261° (W) 14:17:11 435.822/435.867
JAS-2 04 Mar 14:07:34 14:11:58 23° 54° (NE) 14:16:55 435.910
TISAT 1 04 Mar 14:08:03 14:10:50 17° 300° (WNW) 14:13:30 437.305
SPROUT 04 Mar 14:10:57 14:13:30 15° 301° (WNW) 14:15:54 437.525
KKS-1 04 Mar 14:24:56 14:28:55 32° 95° (E) 14:32:54 437.445
STARS 04 Mar 14:27:18 14:30:47 23° 92° (E) 14:34:18 437.465
SWISSCUBE 04 Mar 14:35:22 14:40:02 48° 291° (WNW) 14:44:38 437.505
ISS 04 Mar 14:40:54 14:43:39 25° 215° (SW) 14:46:23 145.825
BEESAT 04 Mar 14:43:42 14:48:17 44° 292° (WNW) 14:52:49 436.000
AO-7 04 Mar 14:55:59 15:04:20 82° 68° (ENE) 15:12:42 29.400- 29.500
YUBILEINY 04 Mar 15:00:06 15:07:35 34° 83° (E) 15:15:16 435.215
ITUPSAT 1 04 Mar 15:12:40 15:16:44 27° 297° (WNW) 15:20:43 437.325
HORYU 2 04 Mar 15:31:45 15:35:42 30° 265° (W) 15:39:37 437.375
Gurwin Techsat 1B 04 Mar 15:33:10 15:35:52 13° 276° (W) 15:38:19 435.225
BEESAT 3 04 Mar 15:49:37 15:50:23 11° 110° (ESE) 15:51:22 437.485
MOZHAYETS 4 04 Mar 15:50:34 15:53:21 16° 87° (E) 15:56:19
JAS-2 04 Mar 15:50:41 15:56:20 79° 256° (WSW) 16:02:49 435.910
KKS-1 04 Mar 16:01:34 16:05:35 33° 294° (WNW) 16:09:31 437.445
STARS 04 Mar 16:03:17 16:07:29 44° 291° (WNW) 16:11:39 437.465
Cubesat XI-IV 04 Mar 16:10:10 16:14:23 24° 59° (ENE) 16:18:43 437.490
M-CUBED/EXP-1 PRIME 04 Mar 16:11:18 16:14:44 24° 99° (E) 16:18:25 437.505
AUBIESAT-1 04 Mar 16:11:43 16:15:01 22° 99° (E) 16:18:32 437.475
